Regional Weather Roundup
Issued by NWS

Home | Current Version | Previous Version | Graphics & Text | Print | Product List | Glossary On
Versions: 1 2 3 4 5 6 7 8 9 10 11 12 13 14 15 16 17 18 19 20 21 22 23 24 25 26 27 28 29 30 31 32 33 34 35 36 37 38 39 40 41 42 43 44 45 46 47 48 49 50
000
ASUS43 KIND 312059
RWRIN

WEATHER ROUNDUP FOR INDIANA
NATIONAL WEATHER SERVICE INDIANAPOLIS IN
500 PM EDT SUN AUG 31 2014

NOTE: "FAIR" INDICATES FEW OR NO CLOUDS BELOW 12,000 FEET WITH NO
SIGNIFICANT WEATHER AND/OR OBSTRUCTIONS TO VISIBILITY.

* - STATION DOES NOT REPORT WEATHER SUCH AS PRECIPITATION OR FOG.

+ - STATION NOT QUALITY CONTROLLED BY THE NATIONAL WEATHER SERVICE.
    USE DATA WITH CAUTION...ESPECIALLY DEWPOINT AND RELATIVE
    HUMIDITY OBSERVATIONS.

INZ001>003-010>013-019-020-312200-
NORTHWEST INDIANA

CITY           SKY/WX    TMP DP  RH WIND       PRES   REMARKS
GARY /AIRPORT/ MOSUNNY   86  63  45 SW14      29.92S
KNOX *+        MOSUNNY   82  68  62 SW6       29.93S
MONTICELLO +   MOSUNNY   83  72  71 SW9       29.93F
RENSSELAER +   MOSUNNY   82  72  69 SW8       29.94S
VALPARAISO     SUNNY     83  67  58 SW10      29.94F

$$

LMZ046-743>745-312200-
SOUTHERN LAKE MICHIGAN

STATION/POSITION TIME  TEMP WIND        PRES
                       AIR  DIR/SP/G
                 (UTC) (F)  (DEG/KT/KT) (MB)
MICHIGAN CITY    2000   76   10/  3/  3   N/A

$$

INZ004-005-014>016-021>024-312200-
NORTH CENTRAL INDIANA

CITY           SKY/WX    TMP DP  RH WIND       PRES   REMARKS
ELKHART        LGT RAIN  81  70  69 S6        29.94S
GOSHEN         MOSUNNY   85  69  58 SW14      29.93F
SOUTH BEND     PTSUNNY   85  68  56 SW12      29.93F

$$

INZ006>009-017-018-025>027-312200-
NORTHEAST INDIANA

CITY           SKY/WX    TMP DP  RH WIND       PRES   REMARKS
ANGOLA *+      PTSUNNY   82  75  78 VRB5      29.95S
FORT WAYNE     PTSUNNY   82  70  66 SW10      29.96F

$$

INZ028-029-035-036-043>045-051>053-312200-
WEST CENTRAL INDIANA

CITY           SKY/WX    TMP DP  RH WIND       PRES   REMARKS
GREENCASTLE +  PTSUNNY   79  72  78 S5        29.98S
LAFAYETTE      MOSUNNY   83  71  67 VRB6      29.93F
TERRE HAUTE    MOSUNNY   82  71  69 S8        29.95F

$$

INZ030>032-037>040-046>048-054>057-064-065-312200-
CENTRAL INDIANA

CITY           SKY/WX    TMP DP  RH WIND       PRES   REMARKS
COLUMBUS       MOSUNNY   82  72  69 SW9       29.99S
FRANKFORT +    MOSUNNY   83  71  67 SW6       29.97S
INDIANAPOLIS   PTSUNNY   82  70  66 SW15      29.96F
-EAGLE CREEK   MOSUNNY   82  69  64 VRB3      29.96F
KOKOMO *+      PTSUNNY   82  72  69 W14       29.95F
MT COMFORT *+  MOSUNNY   81  73  78 S10       29.98F
SHELBYVILLE    PTSUNNY   81  71  71 S12       29.98S

$$

INZ033-034-041-042-049-050-058-059-312200-
EAST CENTRAL INDIANA

CITY           SKY/WX    TMP DP  RH WIND       PRES   REMARKS
MUNCIE         PTSUNNY   79  70  74 SW8       29.97S

$$

INZ060-061-067>069-081>083-085>088-312200-
SOUTHWEST INDIANA

CITY           SKY/WX    TMP DP  RH WIND       PRES   REMARKS
EVANSVILLE     MOSUNNY   81  71  71 E6        29.97F

$$

INZ062-063-066-070>080-084-089>092-312200-
SOUTH CENTRAL AND SOUTHEAST INDIANA

CITY           SKY/WX    TMP DP  RH WIND       PRES   REMARKS
BLOOMINGTON    LGT RAIN  79  71  76 S3        29.98F
SEYMOUR +      PTSUNNY   81  63  54 S5        29.99

$$




USA.gov is the U.S. government's official web portal to all federal, state and local government web resources and services.